CST,Max TemperatureF,Mean TemperatureF,Min TemperatureF,Max Dew PointF,MeanDew PointF,Min DewpointF,Max Humidity, Mean Humidity, Min Humidity, Max Sea Level PressureIn, Mean Sea Level PressureIn, Min Sea Level PressureIn, Max VisibilityMiles, Mean VisibilityMiles, Min VisibilityMiles, Max Wind SpeedMPH, Mean Wind SpeedMPH, Max Gust SpeedMPH,PrecipitationIn, CloudCover, Events, WindDirDegrees
2013-2-1,34,23,12,24,16,8,85,72,54,30.42,30.25,30.12,10,10,9,28,13,34,0.00,2,Snow,197
2013-2-2,54,38,21,33,27,21,96,68,33,30.31,30.25,30.16,10,10,9,15,10,,0.00,0,,288
2013-2-3,53,40,26,30,26,21,82,59,37,30.30,30.09,29.83,10,10,10,20,10,25,0.00,0,,202
2013-2-4,50,40,30,30,28,25,85,68,43,30.01,29.93,29.81,10,10,10,14,9,71,0.00,0,,2
2013-2-5,61,44,27,30,27,22,82,58,25,30.06,30.00,29.90,10,10,9,14,10,21,0.00,0,,275
2013-2-6,61,47,33,50,39,26,96,76,51,30.00,29.88,29.75,10,8,2,25,14,33,0.00,3,,171
2013-2-7,55,44,33,50,35,24,96,73,29,30.23,30.01,29.83,10,7,0,21,10,30,0.02,4,Fog-Rain-Thunderstorm,8
2013-2-8,46,34,21,31,27,19,100,83,56,30.32,30.21,30.04,10,7,0,24,8,31,0.00,1,Fog,138
2013-2-9,50,42,33,39,35,29,100,81,66,30.03,29.77,29.47,10,7,2,31,22,43,0.00,5,Rain,163
2013-2-10,45,38,30,42,26,20,90,66,50,30.06,29.60,29.36,10,10,10,36,27,50,0.00,4,,271
2013-2-11,42,30,19,20,16,14,85,57,32,30.25,30.18,30.10,10,10,10,13,8,,0.00,0,,312
2013-2-12,48,37,26,26,19,12,78,56,31,30.17,30.08,29.99,10,10,10,10,5,17,0.00,0,,249
2013-2-13,57,38,19,22,18,14,82,52,21,30.02,29.94,29.86,10,10,10,21,9,26,0.00,1,,267
2013-2-14,48,38,25,30,23,16,85,60,40,30.37,30.14,29.95,10,10,10,22,11,30,0.00,4,,312
2013-2-15,39,26,12,19,13,8,88,61,32,30.46,30.41,30.33,10,10,10,17,10,25,0.00,3,Snow,317
2013-2-16,59,34,10,25,18,6,86,56,27,30.42,30.16,29.99,10,10,10,22,8,30,0.00,2,,224
2013-2-17,71,48,24,29,22,15,81,47,12,29.97,29.76,29.44,10,10,10,26,10,32,0.00,0,,200
2013-2-18,48,36,24,30,21,14,67,48,28,30.17,29.83,29.39,10,10,10,31,19,43,0.00,1,,343
2013-2-19,41,30,18,15,12,8,78,56,33,30.37,30.27,30.16,10,10,10,15,7,16,0.00,0,,35
2013-2-20,26,24,21,23,19,4,93,82,42,30.24,30.07,29.97,10,2,0,23,17,29,0.17,7,Fog-Snow-Thunderstorm,97
2013-2-21,21,16,12,19,16,10,93,88,81,30.04,29.85,29.76,10,2,0,23,17,29,0.18,7,Fog-Snow,28
2013-2-22,21,13,5,14,8,1,92,82,68,30.16,30.11,29.99,10,10,8,15,11,,0.00,0,Snow,274
2013-2-23,34,18,3,28,15,1,92,87,75,30.11,29.97,29.89,10,7,5,16,10,,0.00,0,,198
2013-2-24,35,26,16,29,23,13,92,82,72,30.02,29.92,29.86,10,7,3,17,10,,0.01,4,Snow,58
2013-2-25,33,30,28,29,27,24,96,88,73,30.02,29.95,29.87,10,4,0,22,18,29,0.04,8,Fog-Snow,8
2013-2-26,30,24,19,25,20,16,92,82,72,30.01,29.90,29.85,10,8,6,16,13,,0.00,3,,339
2013-2-27,37,29,21,27,22,17,93,76,62,30.23,30.12,29.94,10,9,4,25,13,33,0.00,3,Snow,315
2013-2-28,34,28,21,25,22,19,93,79,70,30.30,30.25,30.17,10,9,2,17,11,,0.00,2,,330